WZZ14WR EPWR-EPKK

Flight info

Callsign WZZ14WR
Flight time 0h 29m
Altitude 21000
Route MOFKE
Aircraft A320/M-SDE3FGHIRWY/LB1

Departure

Time 2026-05-08 17:15
Airport Copernicus Wrocław Airport (EPWR)

Arrival

Time 2026-05-08 17:44
Airport Kraków John Paul II International Airport (EPKK)
Time Latitude Longitude Altitude Speed Heading
2026-05-08 16:50 51.10891 16.87940 408 ft 0 kts 22°
2026-05-08 17:07 51.10890 16.87940 408 ft 2 kts 22°
2026-05-08 17:07 51.10866 16.87925 407 ft 4 kts 20°
2026-05-08 17:07 51.10841 16.87913 405 ft 4 kts
2026-05-08 17:07 51.10817 16.87914 407 ft 4 kts 318°
2026-05-08 17:08 51.10812 16.87923 404 ft 0 kts 296°
2026-05-08 17:12 51.10820 16.87896 407 ft 5 kts 296°
2026-05-08 17:12 51.10843 16.87819 408 ft 10 kts 296°
2026-05-08 17:12 51.10881 16.87696 408 ft 11 kts 296°
2026-05-08 17:12 51.10909 16.87605 408 ft 11 kts 296°
2026-05-08 17:13 51.10944 16.87494 406 ft 4 kts 296°
2026-05-08 17:13 51.10945 16.87427 409 ft 8 kts 233°
2026-05-08 17:13 51.10880 16.87369 409 ft 13 kts 206°
2026-05-08 17:13 51.10786 16.87298 409 ft 13 kts 205°
2026-05-08 17:14 51.10723 16.87249 409 ft 8 kts 205°
2026-05-08 17:14 51.10678 16.87254 405 ft 8 kts 135°
2026-05-08 17:14 51.10666 16.87284 408 ft 0 kts 115°
2026-05-08 17:14 51.10665 16.87288 408 ft 3 kts 115°
2026-05-08 17:15 51.10581 16.87568 407 ft 71 kts 116°
2026-05-08 17:15 51.10246 16.88661 405 ft 146 kts 114°
2026-05-08 17:15 51.09768 16.90225 1019 ft 160 kts 113°
2026-05-08 17:15 51.09273 16.91827 1931 ft 165 kts 114°
2026-05-08 17:16 51.08737 16.93576 2563 ft 187 kts 114°
2026-05-08 17:16 51.08129 16.95553 3141 ft 211 kts 114°
2026-05-08 17:16 51.07447 16.97762 3955 ft 231 kts 115°
2026-05-08 17:16 51.06725 17.00094 5071 ft 239 kts 116°
2026-05-08 17:17 51.05982 17.02495 6063 ft 243 kts 116°
2026-05-08 17:17 51.05216 17.04919 7211 ft 248 kts 121°
2026-05-08 17:17 51.04284 17.07379 7998 ft 272 kts 118°
2026-05-08 17:17 51.03458 17.10182 8918 ft 286 kts 113°
2026-05-08 17:18 51.02701 17.13153 10032 ft 293 kts 112°
2026-05-08 17:18 51.01938 17.16275 10731 ft 314 kts 112°
2026-05-08 17:18 51.01113 17.19629 11260 ft 337 kts 112°
2026-05-08 17:18 51.00224 17.23149 12060 ft 347 kts 113°
2026-05-08 17:19 50.99300 17.26720 12975 ft 354 kts 113°
2026-05-08 17:19 50.98342 17.30369 13909 ft 361 kts 114°
2026-05-08 17:19 50.97361 17.34064 14732 ft 367 kts 114°
2026-05-08 17:19 50.96358 17.37816 15560 ft 372 kts 114°
2026-05-08 17:20 50.95342 17.41615 16392 ft 377 kts 114°
2026-05-08 17:20 50.94309 17.45471 17222 ft 381 kts 114°
2026-05-08 17:20 50.93267 17.49370 18060 ft 386 kts 114°
2026-05-08 17:20 50.92227 17.53260 18833 ft 391 kts 114°
2026-05-08 17:21 50.91160 17.57250 19585 ft 396 kts 115°
2026-05-08 17:21 50.90071 17.61300 20327 ft 400 kts 115°
2026-05-08 17:21 50.88968 17.65384 20917 ft 405 kts 115°
2026-05-08 17:21 50.87858 17.69490 21098 ft 406 kts 115°
2026-05-08 17:22 50.86731 17.73660 21156 ft 418 kts 115°
2026-05-08 17:22 50.85591 17.77881 21152 ft 417 kts 115°
2026-05-08 17:22 50.84451 17.82095 21152 ft 416 kts 115°
2026-05-08 17:22 50.83311 17.86309 21152 ft 415 kts 115°
2026-05-08 17:23 50.82178 17.90479 21152 ft 413 kts 115°
2026-05-08 17:23 50.81043 17.94645 21152 ft 412 kts 115°
2026-05-08 17:23 50.79909 17.98805 21152 ft 412 kts 115°
2026-05-08 17:23 50.78772 18.02962 21152 ft 412 kts 115°
2026-05-08 17:24 50.77632 18.07114 21149 ft 412 kts 115°
2026-05-08 17:24 50.76505 18.11213 21149 ft 412 kts 115°
2026-05-08 17:24 50.75360 18.15377 21150 ft 413 kts 115°
2026-05-08 17:24 50.74212 18.19550 21149 ft 413 kts 115°
2026-05-08 17:25 50.73064 18.23701 21151 ft 413 kts 115°
2026-05-08 17:25 50.71913 18.27855 21153 ft 413 kts 115°
2026-05-08 17:25 50.70759 18.32008 21156 ft 413 kts 115°
2026-05-08 17:25 50.69605 18.36160 21158 ft 413 kts 115°
2026-05-08 17:26 50.68453 18.40310 21157 ft 413 kts 115°
2026-05-08 17:26 50.67296 18.44467 21158 ft 413 kts 115°
2026-05-08 17:26 50.66139 18.48609 21160 ft 413 kts 115°
2026-05-08 17:26 50.64977 18.52765 21161 ft 413 kts 115°
2026-05-08 17:27 50.63820 18.56903 21146 ft 414 kts 115°
2026-05-08 17:27 50.62658 18.61065 21147 ft 414 kts 115°
2026-05-08 17:27 50.61498 18.65208 21147 ft 414 kts 115°
2026-05-08 17:27 50.60333 18.69353 21147 ft 414 kts 115°
2026-05-08 17:28 50.59166 18.73496 21147 ft 414 kts 115°
2026-05-08 17:28 50.58014 18.77581 21142 ft 414 kts 115°
2026-05-08 17:28 50.56856 18.81673 21139 ft 399 kts 116°
2026-05-08 17:28 50.55738 18.85612 21141 ft 393 kts 116°
2026-05-08 17:29 50.54617 18.89544 21138 ft 391 kts 116°
2026-05-08 17:29 50.53534 18.93350 21135 ft 372 kts 116°
2026-05-08 17:29 50.52497 18.97000 20936 ft 362 kts 116°
2026-05-08 17:29 50.51475 19.00587 20541 ft 358 kts 116°
2026-05-08 17:30 50.50461 19.04134 20109 ft 354 kts 116°
2026-05-08 17:30 50.49459 19.07631 19441 ft 352 kts 116°
2026-05-08 17:30 50.48454 19.11128 19049 ft 349 kts 116°
2026-05-08 17:30 50.47460 19.14588 18658 ft 346 kts 116°
2026-05-08 17:31 50.46485 19.17986 18270 ft 344 kts 116°
2026-05-08 17:31 50.45492 19.21446 17815 ft 341 kts 116°
2026-05-08 17:31 50.44542 19.24755 17074 ft 336 kts 116°
2026-05-08 17:31 50.43581 19.28089 16296 ft 333 kts 116°
2026-05-08 17:32 50.42631 19.31378 15565 ft 329 kts 116°
2026-05-08 17:32 50.41686 19.34636 14830 ft 326 kts 116°
2026-05-08 17:32 50.40754 19.37854 14142 ft 323 kts 116°
2026-05-08 17:32 50.39823 19.41063 13637 ft 323 kts 117°
2026-05-08 17:33 50.38898 19.44250 13283 ft 320 kts 117°
2026-05-08 17:33 50.37982 19.47409 12908 ft 317 kts 117°
2026-05-08 17:33 50.37070 19.50550 12538 ft 315 kts 117°
2026-05-08 17:33 50.36165 19.53658 12164 ft 313 kts 117°
2026-05-08 17:34 50.35266 19.56733 11646 ft 307 kts 117°
2026-05-08 17:34 50.34390 19.59725 10957 ft 304 kts 117°
2026-05-08 17:34 50.33503 19.62746 10573 ft 304 kts 118°
2026-05-08 17:34 50.32624 19.65737 10250 ft 301 kts 118°
2026-05-08 17:35 50.31754 19.68704 9917 ft 299 kts 118°
2026-05-08 17:35 50.30891 19.71641 9544 ft 297 kts 117°
2026-05-08 17:35 50.30032 19.74568 9189 ft 295 kts 118°
2026-05-08 17:35 50.29176 19.77478 8808 ft 293 kts 118°
2026-05-08 17:36 50.28327 19.80352 8452 ft 291 kts 117°
2026-05-08 17:36 50.27483 19.83211 8056 ft 286 kts 117°
2026-05-08 17:36 50.26653 19.86017 7382 ft 283 kts 117°
2026-05-08 17:36 50.25833 19.88789 6733 ft 279 kts 116°
2026-05-08 17:37 50.25023 19.91527 6073 ft 276 kts 116°
2026-05-08 17:37 50.24236 19.94177 5823 ft 257 kts 116°
2026-05-08 17:37 50.23507 19.96628 5512 ft 244 kts 116°
2026-05-08 17:37 50.22794 19.99022 5143 ft 243 kts 116°
2026-05-08 17:38 50.22086 20.01397 4976 ft 241 kts 116°
2026-05-08 17:38 50.21318 20.03707 4820 ft 239 kts 126°
2026-05-08 17:38 50.20181 20.05577 4660 ft 234 kts 144°
2026-05-08 17:38 50.18790 20.06780 4503 ft 224 kts 162°
2026-05-08 17:39 50.17316 20.07356 4374 ft 215 kts 170°
2026-05-08 17:39 50.15880 20.07825 4240 ft 207 kts 169°
2026-05-08 17:39 50.14498 20.08284 4122 ft 199 kts 169°
2026-05-08 17:39 50.13162 20.08399 4038 ft 189 kts 196°
2026-05-08 17:40 50.12053 20.07399 3993 ft 186 kts 230°
2026-05-08 17:40 50.11502 20.05634 3791 ft 182 kts 260°
2026-05-08 17:40 50.11254 20.03742 3596 ft 180 kts 261°
2026-05-08 17:40 50.10996 20.01825 3355 ft 181 kts 261°
2026-05-08 17:41 50.10732 19.99880 3115 ft 181 kts 261°
2026-05-08 17:41 50.10472 19.97981 3012 ft 183 kts 261°
2026-05-08 17:41 50.10210 19.96067 2909 ft 181 kts 261°
2026-05-08 17:41 50.09948 19.94156 2648 ft 178 kts 261°
2026-05-08 17:42 50.09695 19.92340 2406 ft 163 kts 261°
2026-05-08 17:42 50.09471 19.90755 2186 ft 139 kts 261°
2026-05-08 17:42 50.09272 19.89335 1994 ft 130 kts 262°
2026-05-08 17:42 50.09083 19.87981 1824 ft 127 kts 261°
2026-05-08 17:43 50.08899 19.86653 1668 ft 125 kts 260°
2026-05-08 17:43 50.08716 19.85341 1490 ft 123 kts 259°
2026-05-08 17:43 50.08536 19.84037 1348 ft 123 kts 260°
2026-05-08 17:43 50.08358 19.82743 1185 ft 122 kts 261°
2026-05-08 17:44 50.08181 19.81451 1050 ft 122 kts 261°
2026-05-08 17:44 50.08003 19.80159 877 ft 122 kts 260°
2026-05-08 17:44 50.07837 19.78945 802 ft 92 kts 258°
2026-05-08 17:44 50.07758 19.78368 802 ft 34 kts 258°
2026-05-08 17:45 50.07721 19.78111 799 ft 12 kts 250°
2026-05-08 17:45 50.07670 19.78096 799 ft 8 kts 184°
2026-05-08 17:45 50.07602 19.78089 800 ft 12 kts 182°
2026-05-08 17:45 50.07565 19.78086 800 ft 4 kts 182°
2026-05-08 17:46 50.07539 19.78084 800 ft 2 kts 183°
2026-05-08 17:46 50.07506 19.78082 800 ft 7 kts 183°
2026-05-08 17:46 50.07474 19.78146 800 ft 11 kts 89°
2026-05-08 17:46 50.07492 19.78286 800 ft 16 kts 78°
2026-05-08 17:47 50.07519 19.78482 800 ft 21 kts 77°
2026-05-08 17:47 50.07554 19.78733 800 ft 26 kts 77°
2026-05-08 17:47 50.07596 19.79035 800 ft 29 kts 78°
2026-05-08 17:47 50.07625 19.79240 800 ft 26 kts 77°
2026-05-08 17:48 50.07675 19.79604 800 ft 26 kts 78°
2026-05-08 17:48 50.07701 19.79787 800 ft 10 kts 78°
2026-05-08 17:48 50.07703 19.79849 800 ft 9 kts 115°
2026-05-08 17:48 50.07629 19.79893 800 ft 14 kts 167°
2026-05-08 17:49 50.07549 19.79920 800 ft 8 kts 168°
2026-05-08 17:49 50.07515 19.80016 800 ft 6 kts 79°
2026-05-08 17:49 50.07510 19.80060 800 ft 5 kts 141°
2026-05-08 17:49 50.07480 19.80077 800 ft 2 kts 167°
2026-05-08 17:50 50.07473 19.80079 800 ft 1 kts 168°
2026-05-08 17:50 50.07468 19.80081 800 ft 0 kts 168°